Date String (YYYY-MM-DD hh:mm:ss) UTC,Instrument flags,absolute air pressure of the measurement (hPa),sample flow rate (lpm),inlet stack bypass flow (lpm),air temperature of the measurement (°C),ambient temperature measured by the external sensor (°C),aerosol sample conditioner tube jacket temperature (°C),OPC LED temperature (°C),internal box temperature (°C),relative humidity of the measurement (%),span deviation,mass concentration of particles derived from Lorenz-Mie calculation of OPC scattering (μg/m³),mass concentration of particles derived from Lorenz-Mie calculation of OPC scattering (μg/m³),mass concentration of particles derived from Lorenz-Mie calculation of OPC scattering (μg/m³)
DateTimeUTC,F1_M11,P_M11,Q1_M11,Q2_M11,T1_M11,T2_M11,T3_M11,T4_M11,T5_M11,U1_M11,ZSPAN_M11,X0_M11,X2_M11,X1_M11
2024-06-16 08:00:00,SystemResetWarning,0823.8,5.00,000.00,029.7,026.6,000.0,038.7,030.6,016.8,0000.0,0017.32,0006.96,0006.03
2024-06-16 08:01:00,SystemResetWarning,0823.8,5.00,000.00,029.7,027.1,000.0,038.6,030.8,017.0,0000.0,0016.67,0007.00,0006.07
2024-06-16 08:02:00,SystemResetWarning,0823.8,5.01,000.00,029.7,027.5,000.0,038.5,031.0,017.0,0000.0,0016.57,0007.05,0006.10
2024-06-16 08:03:00,SystemResetWarning,0823.8,5.01,000.00,029.7,027.9,000.0,038.4,031.2,017.0,0000.0,0015.99,0007.03,0006.12
2024-06-16 08:04:00,SystemResetWarning,0823.8,5.00,000.00,029.7,028.2,000.0,038.4,031.3,017.0,0000.0,0015.59,0007.05,0006.15
2024-06-16 08:05:00,SystemResetWarning,0823.8,5.01,000.00,029.8,028.4,000.0,038.3,031.4,016.7,0000.0,0014.43,0007.09,0006.20
2024-06-16 08:06:00,SystemResetWarning,0823.8,5.00,000.00,029.8,028.6,000.0,038.3,031.4,016.4,0000.0,0013.65,0007.20,0006.26
2024-06-16 08:07:00,SystemResetWarning,0823.8,4.98,000.00,029.8,028.8,000.0,038.3,031.5,016.4,0000.0,0012.98,0007.21,0006.30
2024-06-16 08:08:00,SystemResetWarning,0823.8,5.01,000.00,029.9,028.9,000.0,038.3,031.5,016.3,0000.0,0012.57,0007.18,0006.30
2024-06-16 08:09:00,SystemResetWarning,0823.8,5.01,000.00,029.9,029.0,000.0,038.3,031.6,016.4,0000.6,0012.16,0007.13,0006.31
2024-06-16 08:10:00,SystemResetWarning,0823.8,5.00,000.00,029.9,029.1,000.0,038.3,031.7,016.5,0004.0,0011.89,0007.09,0006.31
2024-06-16 08:11:00,SystemResetWarning,0823.8,5.00,000.00,030.0,029.2,000.0,038.3,031.7,016.5,0004.0,0012.54,0007.12,0006.32
2024-06-16 08:12:00,SystemResetWarning,0823.9,5.00,000.00,030.0,029.3,000.0,038.3,031.8,016.4,0003.8,0012.93,0007.10,0006.33
2024-06-16 08:13:00,SystemResetWarning,0823.9,4.99,000.00,030.1,029.4,000.0,038.3,031.8,016.2,0004.0,0013.18,0007.12,0006.35
2024-06-16 08:14:00,SystemResetWarning,0823.9,5.00,000.00,030.1,029.4,000.0,038.3,031.8,016.0,0004.2,0013.14,0007.15,0006.41
2024-06-16 08:15:00,SystemResetWarning,0823.8,5.01,000.00,030.1,029.5,000.0,038.3,031.9,016.0,0004.1,0013.24,0007.20,0006.46
2024-06-16 08:16:00,SystemResetWarning,0823.9,5.00,000.00,030.2,029.5,000.0,038.4,031.9,016.1,0004.0,0013.27,0007.20,0006.50
2024-06-16 08:17:00,SystemResetWarning,0823.8,5.00,000.00,030.2,029.6,000.0,038.4,031.9,016.2,0004.1,0013.84,0007.21,0006.54
2024-06-16 08:18:00,SystemResetWarning,0823.8,5.01,000.00,030.2,029.6,000.0,038.4,032.0,016.0,0003.7,0014.41,0007.20,0006.57
2024-06-16 08:19:00,SystemResetWarning,0823.8,5.00,000.00,030.2,029.6,000.0,038.4,032.0,015.8,0003.8,0014.48,0007.29,0006.62
2024-06-16 08:20:00,SystemResetWarning,0823.8,5.00,000.00,030.3,029.7,000.0,038.4,032.0,015.6,0004.0,0014.44,0007.36,0006.70
2024-06-16 08:21:00,SystemResetWarning,0823.8,5.00,000.00,030.3,029.7,000.0,038.5,032.1,015.5,0004.1,0014.73,0007.49,0006.79
2024-06-16 08:22:00,SystemResetWarning,0823.8,5.00,000.00,030.3,029.7,000.0,038.5,032.1,015.4,0002.4,0014.62,0007.55,0006.87
2024-06-16 08:23:00,SystemResetWarning,0823.8,4.99,000.00,030.4,029.8,000.0,038.5,032.1,015.4,0002.7,0014.38,0007.62,0006.94
2024-06-16 08:24:00,SystemResetWarning,0823.8,4.99,000.00,030.4,029.8,000.0,038.5,032.1,015.2,0004.0,0014.30,0007.70,0007.02
2024-06-16 08:25:00,SystemResetWarning,0823.8,5.01,000.00,030.4,029.8,000.0,038.6,032.1,015.2,0003.8,0014.84,0007.79,0007.10
2024-06-16 08:26:00,SystemResetWarning,0823.8,5.01,000.00,030.4,029.8,000.0,038.6,032.2,015.2,0003.3,0014.85,0007.83,0007.18
2024-06-16 08:27:00,SystemResetWarning,0823.8,5.00,000.00,030.5,029.9,000.0,038.6,032.2,015.1,0003.2,0015.36,0007.92,0007.24
2024-06-16 08:28:00,SystemResetWarning,0823.8,4.99,000.00,030.5,029.9,000.0,038.6,032.2,015.0,0003.3,0014.76,0007.98,0007.31
2024-06-16 08:29:00,SystemResetWarning,0823.8,5.00,000.00,030.5,029.9,000.0,038.7,032.2,014.9,0003.2,0014.39,0008.10,0007.35
2024-06-16 08:30:00,SystemResetWarning,0823.8,5.01,000.00,030.5,029.9,000.0,038.7,032.2,014.9,0003.2,0014.25,0008.14,0007.40
2024-06-16 08:31:00,SystemResetWarning,0823.8,5.01,000.00,030.6,029.9,000.0,038.7,032.2,014.9,0002.5,0014.37,0008.19,0007.45
2024-06-16 08:32:00,SystemResetWarning,0823.8,5.00,000.00,030.6,030.0,000.0,038.7,032.3,015.0,0002.3,0014.28,0008.17,0007.47
2024-06-16 08:33:00,SystemResetWarning,0823.8,5.00,000.00,030.6,030.0,000.0,038.7,032.3,015.1,0002.7,0013.68,0008.20,0007.51
2024-06-16 08:34:00,SystemResetWarning,0823.8,4.99,000.00,030.6,030.0,000.0,038.8,032.3,015.0,0002.8,0013.55,0008.23,0007.55
2024-06-16 08:35:00,SystemResetWarning,0823.8,5.00,000.00,030.6,030.0,000.0,038.8,032.3,014.9,0002.5,0013.35,0008.20,0007.56
2024-06-16 08:36:00,SystemResetWarning,0823.8,5.00,000.00,030.7,030.0,000.0,038.8,032.4,015.2,0002.9,0012.72,0008.15,0007.55
2024-06-16 08:37:00,SystemResetWarning,0823.7,5.00,000.00,030.7,030.1,000.0,038.8,032.4,015.1,0003.7,0012.62,0008.15,0007.53
2024-06-16 08:38:00,SystemResetWarning,0823.8,4.99,000.00,030.7,030.1,000.0,038.9,032.3,015.0,0004.1,0012.49,0008.15,0007.53
2024-06-16 08:39:00,SystemResetWarning,0823.8,5.00,000.00,030.7,030.1,000.0,038.9,032.4,014.9,0003.9,0012.52,0008.14,0007.53
2024-06-16 08:40:00,SystemResetWarning,0823.8,5.00,000.00,030.7,030.1,000.0,038.9,032.4,014.8,0003.9,0012.73,0008.09,0007.54
2024-06-16 08:41:00,SystemResetWarning,0823.8,5.00,000.00,030.7,030.1,000.0,038.9,032.4,014.7,0004.1,0012.65,0008.08,0007.55
2024-06-16 08:42:00,SystemResetWarning,0823.8,5.00,000.00,030.8,030.1,000.0,038.9,032.5,014.6,0004.5,0012.47,0008.08,0007.54
2024-06-16 08:43:00,SystemResetWarning,0823.8,5.01,000.00,030.8,030.1,000.0,039.0,032.5,014.6,0004.5,0012.34,0008.10,0007.58
2024-06-16 08:44:00,SystemResetWarning,0823.8,5.01,000.00,030.8,030.1,000.0,039.0,032.5,014.6,0004.1,0012.74,0008.14,0007.62
2024-06-16 08:45:00,SystemResetWarning,0823.8,4.99,000.00,030.8,030.2,000.0,039.0,032.5,014.6,0003.9,0013.46,0008.20,0007.66
2024-06-16 08:46:00,SystemResetWarning,0823.8,4.98,000.00,030.8,030.2,000.0,039.0,032.5,014.6,0003.9,0013.63,0008.27,0007.72
2024-06-16 08:47:00,SystemResetWarning,0823.8,5.00,000.00,030.8,030.2,000.0,039.0,032.5,014.5,0003.8,0013.70,0008.34,0007.76
2024-06-16 08:48:00,SystemResetWarning,0823.8,5.00,000.00,030.8,030.2,000.0,039.0,032.5,014.5,0003.6,0013.86,0008.39,0007.81
2024-06-16 08:49:00,SystemResetWarning,0823.8,5.00,000.00,030.8,030.2,000.0,039.1,032.5,014.5,0003.7,0013.79,0008.43,0007.85
2024-06-16 08:50:00,SystemResetWarning,0823.8,5.00,000.00,030.9,030.2,000.0,039.1,032.5,014.5,0003.8,0013.64,0008.46,0007.90
2024-06-16 08:51:00,SystemResetWarning,0823.8,5.00,000.00,030.9,030.2,000.0,039.1,032.5,014.5,0003.8,0013.39,0008.51,0007.94
2024-06-16 08:52:00,SystemResetWarning,0823.9,5.00,000.00,030.9,030.2,000.0,039.1,032.6,014.6,0003.8,0013.38,0008.56,0007.99
2024-06-16 08:53:00,SystemResetWarning,0824.0,5.00,000.00,030.9,030.2,000.0,039.1,032.6,014.6,0003.5,0013.64,0008.60,0008.03
2024-06-16 08:54:00,SystemResetWarning,0824.0,4.99,000.00,030.9,030.3,000.0,039.1,032.6,014.6,0003.2,0014.36,0008.63,0008.05
2024-06-16 08:55:00,SystemResetWarning,0824.1,5.01,000.00,030.9,030.3,000.0,039.2,032.6,015.2,0003.0,0014.05,0008.60,0008.04
2024-06-16 08:56:00,SystemResetWarning,0824.1,5.01,000.00,030.9,030.3,000.0,039.2,032.6,016.6,0002.9,0013.41,0008.55,0007.98
2024-06-16 08:57:00,SystemResetWarning,0824.1,5.00,000.00,031.0,030.3,000.0,039.2,032.6,016.9,0003.1,0013.42,0008.43,0007.85
2024-06-16 08:58:00,SystemResetWarning,0824.1,4.99,000.00,031.0,030.3,000.0,039.2,032.6,016.7,0003.1,0014.07,0008.32,0007.71
2024-06-16 08:59:00,SystemResetWarning,0824.1,4.99,000.00,031.0,030.3,000.0,039.2,032.6,016.9,0003.3,0014.40,0008.26,0007.58
